Tillbaka till svenska Fidonet
English   Information   Debug  
FILM   0/18
FNEWS_PUBLISH   4926
FN_SYSOP   42201
FN_SYSOP_OLD1   71952
FTP_FIDO   0/2
FTSC_PUBLIC   0/13972
FUNNY   0/4886
GENEALOGY.EUR   0/71
GET_INFO   105
GOLDED   0/408
HAM   2328/16660
HOLYSMOKE   0/6791
HOT_SITES   0/1
HTMLEDIT   0/71
HUB203   466
HUB_100   264
HUB_400   39
HUMOR   0/29
IC   0/2851
INTERNET   0/424
INTERUSER   0/3
IP_CONNECT   719
JAMNNTPD   0/233
JAMTLAND   0/47
KATTY_KORNER   0/41
LAN   0/16
LINUX-USER   0/19
LINUXHELP   0/1155
LINUX   0/22300
LINUX_BBS   0/957
mail   18.68
mail_fore_ok   249
MENSA   0/341
MODERATOR   0/102
MONTE   0/992
MOSCOW_OKLAHOMA   0/1245
MUFFIN   0/783
MUSIC   0/321
N203_STAT   938
N203_SYSCHAT   313
NET203   321
NET204   69
NET_DEV   0/10
NORD.ADMIN   0/101
NORD.CHAT   0/2572
NORD.FIDONET   189
NORD.HARDWARE   0/28
NORD.KULTUR   0/114
NORD.PROG   0/32
NORD.SOFTWARE   0/88
NORD.TEKNIK   0/58
NORD   0/453
OCCULT_CHAT   0/93
OS2BBS   0/787
OS2DOSBBS   0/580
OS2HW   0/42
OS2INET   0/37
OS2LAN   0/134
OS2PROG   0/36
OS2REXX   0/113
OS2USER-L   207
OS2   0/4830
OSDEBATE   0/18996
PASCAL   0/490
PERL   0/457
PHP   0/45
POINTS   0/405
POLITICS   0/29554
POL_INC   0/14731
PSION   103
R20_ADMIN   1133
R20_AMATORRADIO   0/2
R20_BEST_OF_FIDONET   16
R20_CHAT   0/896
R20_DEPP   0/3
R20_DEV   400
R20_ECHO2   1831
R20_ECHOPRES   0/35
R20_ESTAT   0/719
R20_FIDONETPROG...
...RAM.MYPOINT
  0/2
R20_FIDONETPROGRAM   0/22
R20_FIDONET   0/248
R20_FILEFIND   0/24
R20_FILEFOUND   0/22
R20_HIFI   0/3
R20_INFO2   3723
R20_INTERNET   0/12940
R20_INTRESSE   0/60
R20_INTR_KOM   0/99
R20_KANDIDAT.CHAT   42
R20_KANDIDAT   28
R20_KOM_DEV   112
R20_KONTROLL   0/13360
R20_KORSET   0/18
R20_LOKALTRAFIK   0/24
R20_MODERATOR   0/1852
R20_NC   76
R20_NET200   245
R20_NETWORK.OTH...
...ERNETS
  0/13
R20_OPERATIVSYS...
...TEM.LINUX
  0/44
R20_PROGRAMVAROR   0/1
R20_REC2NEC   534
R20_SFOSM   0/341
R20_SF   0/108
R20_SPRAK.ENGLISH   0/1
R20_SQUISH   107
R20_TEST   2
R20_WORST_OF_FIDONET   20
RAR   0/9
RA_MULTI   106
RA_UTIL   0/162
REGCON.EUR   0/2068
REGCON   0/13
SCIENCE   0/1206
SF   0/239
SHAREWARE_SUPPORT   0/5146
SHAREWRE   0/14
SIMPSONS   0/169
STATS_OLD1   0/2539.065
STATS_OLD2   0/2530
STATS_OLD3   0/2395.095
STATS_OLD4   0/1692.25
SURVIVOR   0/495
SYSOPS_CORNER   0/3
SYSOP   0/84
TAGLINES   0/112
TEAMOS2   0/4530
TECH   0/2617
TEST.444   0/105
TRAPDOOR   0/19
TREK   0/755
TUB   0/290
UFO   0/40
UNIX   0/1316
USA_EURLINK   0/102
USR_MODEMS   0/1
VATICAN   0/2740
VIETNAM_VETS   0/14
VIRUS   0/378
VIRUS_INFO   0/201
VISUAL_BASIC   0/473
WHITEHOUSE   0/5187
WIN2000   0/101
WIN32   0/30
WIN95   0/4291
WIN95_OLD1   0/70272
WINDOWS   0/1517
WWB_SYSOP   0/419
WWB_TECH   0/810
ZCC-PUBLIC   0/1
ZEC   4

 
4DOS   0/134
ABORTION   0/7
ALASKA_CHAT   0/506
ALLFIX_FILE   0/1313
ALLFIX_FILE_OLD1   0/7997
ALT_DOS   0/152
AMATEUR_RADIO   0/1039
AMIGASALE   0/14
AMIGA   0/331
AMIGA_INT   0/1
AMIGA_PROG   0/20
AMIGA_SYSOP   0/26
ANIME   0/15
ARGUS   0/924
ASCII_ART   0/340
ASIAN_LINK   0/651
ASTRONOMY   0/417
AUDIO   0/92
AUTOMOBILE_RACING   0/105
BABYLON5   0/17862
BAG   135
BATPOWER   0/361
BBBS.ENGLISH   0/382
BBSLAW   0/109
BBS_ADS   0/5290
BBS_INTERNET   0/507
BIBLE   0/3563
BINKD   0/1119
BINKLEY   0/215
BLUEWAVE   0/2173
CABLE_MODEMS   0/25
CBM   0/46
CDRECORD   0/66
CDROM   0/20
CLASSIC_COMPUTER   0/378
COMICS   0/15
CONSPRCY   0/899
COOKING   41444
COOKING_OLD1   0/24719
COOKING_OLD2   0/40862
COOKING_OLD3   0/37489
COOKING_OLD4   0/35496
COOKING_OLD5   9370
C_ECHO   0/189
C_PLUSPLUS   0/31
DIRTY_DOZEN   0/201
DOORGAMES   0/2285
DOS_INTERNET   0/196
duplikat   6102
ECHOLIST   0/18295
EC_SUPPORT   0/318
ELECTRONICS   0/359
ELEKTRONIK.GER   1534
ENET.LINGUISTIC   0/13
ENET.POLITICS   0/4
ENET.SOFT   0/11701
ENET.SYSOP   34296
ENET.TALKS   0/32
ENGLISH_TUTOR   0/2000
EVOLUTION   0/1335
FDECHO   0/217
FDN_ANNOUNCE   0/7068
FIDONEWS   25062
FIDONEWS_OLD1   0/49742
FIDONEWS_OLD2   0/35949
FIDONEWS_OLD3   0/30874
FIDONEWS_OLD4   0/37224
FIDO_SYSOP   12922
FIDO_UTIL   0/180
FILEFIND   0/209
FILEGATE   0/212
Möte HAM, 16660 texter
 lista första sista föregående nästa
Text 3428, 878 rader
Skriven 2010-01-01 10:00:25 av Amsat List (1:323/120.0)
Ärende: [keps]  orb09365.amsa
=============================
[keps]  orb09365.amsa

Return-Path: <keps-bounces@amsat.org>
X-Rcpt: craig.healy@chowda.com
X-UIDL: 1262357684.2035

SB KEPS @ AMSAT  $ORB09365.O
Orbital Elements  09365.OSCAR

HR AMSAT ORBITAL ELEMENTS FOR OSCAR SATELLITES
FROM WA5QGD FORT WORTH,TX December 31, 2009
Send Subscribe/unsubscribe to KEPS at http://www.amsat.org/mailman/listinfo/kep
BID: ORB09365.O
TO ALL RADIO AMATEURS BT

Satellite: AO-07
Catalog number: 07530
Epoch time:      09364.57197685
Element set:    0668
Inclination:      101.4129 deg
RA of node:       021.9224 deg
Eccentricity:    0.0011839
Arg of perigee:   244.6271 deg
Mean anomaly:     115.3573 deg
Mean motion:   12.53577289 rev/day
Decay rate:       -2.7e-07 rev/day^2
Epoch rev:           60732
Checksum:              311

Satellite: FO-29
Catalog number: 24278
Epoch time:      09364.64140698
Element set:     213
Inclination:      098.5226 deg
RA of node:       211.9794 deg
Eccentricity:    0.0350537
Arg of perigee:   200.9494 deg
Mean anomaly:     157.6974 deg
Mean motion:   13.52947278 rev/day
Decay rate:        7.7e-07 rev/day^2
Epoch rev:           66031
Checksum:              344

Satellite: SO-33
Catalog number: 25509
Epoch time:      09364.46297597
Element set:    0620
Inclination:      031.4345 deg
RA of node:       022.6253 deg
Eccentricity:    0.0354757
Arg of perigee:   254.6178 deg
Mean anomaly:     101.4984 deg
Mean motion:   14.28275760 rev/day
Decay rate:        5.4e-07 rev/day^2
Epoch rev:           58391
Checksum:              325

Satellite: RS-22
Catalog number: 27939
Epoch time:      09364.64738931
Element set:    0976
Inclination:      097.9158 deg
RA of node:       232.0305 deg
Eccentricity:    0.0012781
Arg of perigee:   229.7704 deg
Mean anomaly:     130.2387 deg
Mean motion:   14.63369441 rev/day
Decay rate:        2.7e-07 rev/day^2
Epoch rev:           33430
Checksum:              321

Satellite: VO-52
Catalog number: 28650
Epoch time:      09364.77853179
Element set:     399
Inclination:      097.7184 deg
RA of node:       059.5793 deg
Eccentricity:    0.0028304
Arg of perigee:   106.8638 deg
Mean anomaly:     253.5697 deg
Mean motion:   14.81660286 rev/day
Decay rate:      -1.68e-06 rev/day^2
Epoch rev:           25175
Checksum:              366

Satellite: SO-67
Catalog number: 35870
Epoch time:      09365.82028855
Element set:     310
Inclination:      097.3582 deg
RA of node:       053.8439 deg
Eccentricity:    0.0010273
Arg of perigee:   288.5340 deg
Mean anomaly:     201.8154 deg
Mean motion:   15.22903423 rev/day
Decay rate:       3.70e-06 rev/day^2
Epoch rev:            1599
Checksum:              306

Satellite: HO-68
Catalog number: 36122
Epoch time:      09365.80218631
Element set:      49
Inclination:      100.4965 deg
RA of node:       062.7636 deg
Eccentricity:    0.0007713
Arg of perigee:   359.4628 deg
Mean anomaly:     000.6474 deg
Mean motion:   13.16279923 rev/day
Decay rate:       -4.5e-07 rev/day^2
Epoch rev:             219
Checksum:              300

/EX
SB KEPS @ AMSAT  $ORB09365.D
Orbital Elements  09365.MICROS

HR AMSAT ORBITAL ELEMENTS FOR THE MICROSATS
FROM WA5QGD FORT WORTH,TX December 31, 2009
Send Subscribe/unsubscribe to KEPS at http://www.amsat.org/mailman/listinfo/kep
BID: ORB09365.D
TO ALL RADIO AMATEURS BT

Satellite: UO-11
Catalog number: 14781
Epoch time:      09364.71991037
Element set:     139
Inclination:      098.0816 deg
RA of node:       050.7337 deg
Eccentricity:    0.0010103
Arg of perigee:   064.3413 deg
Mean anomaly:     295.8830 deg
Mean motion:   14.79758105 rev/day
Decay rate:       2.49e-06 rev/day^2
Epoch rev:           38689
Checksum:              319

Satellite: AO-16
Catalog number: 20439
Epoch time:      09365.82681778
Element set:     786
Inclination:      098.3078 deg
RA of node:       325.5347 deg
Eccentricity:    0.0010318
Arg of perigee:   307.5198 deg
Mean anomaly:     052.5051 deg
Mean motion:   14.31844148 rev/day
Decay rate:        3.1e-07 rev/day^2
Epoch rev:            4143
Checksum:              309

Satellite: LO-19
Catalog number: 20442
Epoch time:      09364.87340273
Element set:    0696
Inclination:      098.2707 deg
RA of node:       331.1086 deg
Eccentricity:    0.0011023
Arg of perigee:   304.0034 deg
Mean anomaly:     056.0134 deg
Mean motion:   14.32077453 rev/day
Decay rate:        4.7e-07 rev/day^2
Epoch rev:           04146
Checksum:              267

Satellite: AO-27
Catalog number: 22825
Epoch time:      09364.51154467
Element set:    0422
Inclination:      098.4651 deg
RA of node:       312.0175 deg
Eccentricity:    0.0009065
Arg of perigee:   050.3680 deg
Mean anomaly:     309.8287 deg
Mean motion:   14.29282645 rev/day
Decay rate:        5.9e-07 rev/day^2
Epoch rev:           84795
Checksum:              323

Satellite: IO-26
Catalog number: 22826
Epoch time:      09364.88702468
Element set:     155
Inclination:      098.4573 deg
RA of node:       313.0494 deg
Eccentricity:    0.0009586
Arg of perigee:   044.8842 deg
Mean anomaly:     315.3127 deg
Mean motion:   14.29536253 rev/day
Decay rate:        8.0e-08 rev/day^2
Epoch rev:           84811
Checksum:              326

Satellite: GO-32
Catalog number: 25397
Epoch time:      09364.78919322
Element set:      75
Inclination:      098.3184 deg
RA of node:       016.4917 deg
Eccentricity:    0.0002004
Arg of perigee:   058.6726 deg
Mean anomaly:     301.4645 deg
Mean motion:   14.23169312 rev/day
Decay rate:       1.25e-06 rev/day^2
Epoch rev:           59609
Checksum:              309

